Regional Weather Roundup
Issued by NWS

Home | Current Version | Previous Version | Graphics & Text | Print | Product List | Glossary On
Versions: 1 2 3 4 5 6 7 8 9 10 11 12 13 14 15 16 17 18 19 20 21 22 23 24 25 26 27 28 29 30 31 32 33 34 35 36 37 38 39 40 41 42 43 44 45 46 47 48 49 50
015
ASUS43 KDMX 131903
RWRIA

WEATHER ROUNDUP FOR IOWA
NATIONAL WEATHER SERVICE DES MOINES IA
100 PM CST SAT FEB 13 2016

NOTE: "FAIR" INDICATES FEW OR NO CLOUDS BELOW 12,000 FEET WITH NO
SIGNIFICANT WEATHER AND/OR OBSTRUCTIONS TO VISIBILITY.

* - THESE STATIONS ARE NOT NWS STATIONS...THUS NOT UNDER NWS
QUALITY CONTROL.  THEY ALSO DO NOT REPORT WEATHER SUCH
AS PRECIPITATION OR FOG.

IAZ001>003-012>014-020>022-031>034-043>046-132000-
   NORTHWEST IOWA

CITY           SKY/WX    TMP DP  RH WIND       PRES   REMARKS
CARROLL *      CLOUDY     7   1  78 SE13      30.51F WCI  -9
CHEROKEE *     CLOUDY     9   1  72 SE10      30.48F WCI  -6
DENISON *      CLOUDY    10   1  67 S8        30.48S WCI  -1
LE MARS *      CLOUDY    10   1  67 SE13G18   30.46F WCI  -5
ORANGE CITY *  CLOUDY     7   1  78 SE8       30.42F WCI  -6
SHELDON *      CLOUDY     7   0  72 SE14      30.43F WCI -10
SIOUX CITY     CLOUDY    12   1  61 SE15      30.45F WCI  -4
SPENCER        CLOUDY     5  -4  66 SE13      30.46F WCI -12
STORM LAKE *   CLOUDY     5   0  78 SE14      30.45F WCI -12
$$

IAZ055>058-069>071-079>083-090>094-132000-
   SOUTHWEST IOWA

CITY           SKY/WX    TMP DP  RH WIND       PRES   REMARKS
ATLANTIC *     CLOUDY    12   1  62 SE7G13    30.50F WCI   2
AUDUBON *      CLOUDY    10   1  67 SE9       30.49F WCI  -2
CLARINDA *     CLOUDY    16   1  53 SE8       30.54F WCI   5
COUNCIL BLFS * PTSUNNY   14   5  67 SE13      30.48F WCI   0
CRESTON *      CLOUDY    14  -2  48 SE10      30.51F WCI   1
HARLAN  *      CLOUDY    12   3  67 SE10      30.52F WCI  -1
LAMONI         CLOUDY    13  -1  54 SE6       30.52F WCI   4
RED OAK *      CLOUDY    16   1  53 SE12      30.51F WCI   3
SHENANDOAH *   CLOUDY    18   1  49 SE12      30.52F WCI   5
$$

IAZ047>049-059>061-072>074-084-132000-
   CENTRAL IOWA

CITY           SKY/WX    TMP DP  RH WIND       PRES   REMARKS
AMES           CLOUDY     9  -1  64 E3        30.56F
ANKENY *       CLOUDY    12  -4  48 SE7       30.57F WCI   2
BOONE *        CLOUDY     7  -2  66 SE8       30.53F WCI  -6
CHARITON *     CLOUDY    14  -2  48 CALM      30.55F
DES MOINES     CLOUDY    11  -4  51 S8        30.56F WCI  -1
GRINNELL*      CLOUDY    12  -2  52 CALM      30.56F
KNOXVILLE *    CLOUDY    12  -2  52 E5        30.55F WCI   4
MARSHALLTOWN   CLOUDY    10  -2  58 CALM      30.55F
NEWTON *       CLOUDY    10  -4  52 VRB5      30.56F WCI   2
PELLA *        CLOUDY    14  -4  44 CALM      30.58F
$$

IAZ004>006-015-016-023>025-035-036-132000-
   NORTH CENTRAL IOWA

CITY           SKY/WX    TMP DP  RH WIND       PRES   REMARKS
ALGONA *       CLOUDY     7  -2  66 SE10      30.51F WCI  -8
CLARION *      CLOUDY     5  -6  61 S9        30.55F WCI  -9
ESTHERVILLE    CLOUDY     5  -1  76 S14       30.48F WCI -12
FORT DODGE *   CLOUDY     7  -2  66 E8        30.54F WCI  -6
MASON CITY     CLOUDY     3  -5  69 S7        30.56F WCI  -9
FOREST CITY *  PTSUNNY    5  -4  66 S7        30.53F WCI  -7
WEBSTER CITY * CLOUDY     7  -4  61 E9        30.53F WCI  -7
IOWA FALLS *   CLOUDY     9  -2  61 SE5       30.56F HAZE    WCI   0
$$

IAZ007>011-017>019-026>030-037>042-050>054-066-132000-
   NORTHEAST IOWA

CITY           SKY/WX    TMP DP  RH WIND       PRES   REMARKS
CEDAR RAPIDS   CLOUDY    13  -5  44 CALM      30.56F
CHARLES CITY * SUNNY      5 -11  47 CALM      30.56F
CLINTON *      SUNNY     20  -4  34 N3        30.59F
DECORAH *      SUNNY      5  -9  51 S3        30.55F
DUBUQUE        SUNNY     10  -8  44 VRB7      30.55F WCI  -1
MONTICELLO *   SUNNY     12  -9  37 NW7       30.57F WCI   2
OELWEIN *      SUNNY      5  -9  51 CALM      30.57F
WATERLOO       CLOUDY     7  -7  52 CALM      30.58F
$$

IAZ064-065-067-068-078-132000-
   EAST CENTRAL IOWA

CITY           SKY/WX    TMP DP  RH WIND       PRES   REMARKS
DAVENPORT      SUNNY     16  -7  35 N3        30.59F
IOWA CITY      SUNNY     16  -7  35 VRB5      30.60F WCI   9
MT. PLEASANT * SUNNY     19  -2  39 CALM      30.60F
MUSCATINE *    SUNNY     18  -8  32 N6        30.61F WCI   9
QUAD CITIES    SUNNY     17  -7  34 W5        30.60F WCI  10
$$

IAZ062-063-075>077-085>089-095>099-132000-
   SOUTHEAST IOWA

CITY           SKY/WX    TMP DP  RH WIND       PRES   REMARKS
BURLINGTON     CLOUDY    17  -4  39 NW6       30.59F WCI   9
FAIRFIELD *    SUNNY     14  -4  44 CALM      30.59F
FORT MADISON * CLOUDY    16  -2  45 CALM      30.60F
KEOKUK *       SUNNY     18  -2  41 CALM      30.59F
OSKALOOSA *    CLOUDY    14   0  52 CALM      30.59F
OTTUMWA        CLOUDY    13  -2  51 CALM      30.58F
WASHINGTON *   SUNNY     14  -6  41 NW5       30.61F WCI   6
$$

ABBREVIATIONS USED IN REMARKS
   TC - TEMPERATURES IN CELSIUS
  WCI - WIND CHILL INDEX
   HX - HEAT INDEX
  VSB - VISIBILITY
$$





USA.gov is the U.S. government's official web portal to all federal, state and local government web resources and services.